パンスターズ彗星

C/2024 R4 ( PanSTARRS )

English version
Home page
Updated on August 11, 2025

---------------------------------------------------------------------

・ プロフィール

発見日 2024年9月11日
発見光度 21.2等
発見者 Pan-STARRS 1 telescope (Haleakala)

・ 写真集

・ 軌道要素

Epoch 2025 May 5.0 TT = JDT 2460800.5
T 2027 Oct. 26.62670 TT                                 Pike
q   4.4093175            (2000.0)            P               Q
z  -0.0005983      Peri.  108.98920     -0.33709997     -0.90983945
 +/-0.0000082      Node   345.93363     -0.38053344     +0.36677149
e   1.0026380      Incl.   95.35970     +0.86113756     -0.19408982
From 348 observations 2024 July 3-2025 Aug. 6, mean residual 0".3.

・ 星図

・ 光度変化

        m1 = 0.0 + 5 logΔ + 15.0 log r

---------------------------------------------------------------------

軌道要素はM.P.E.C. 2025-P113に掲載されたものです。
星図はステラナビゲータ Ver.11 (アストロアーツ) で作成したものです。
光度グラフはComet for Windowsで作成したものです。

---------------------------------------------------------------------

Copyright(C) Seiichi Yoshida (comet@aerith.net). All rights reserved.